Flag for Canada Weather past 2 weeks in Kingston, Ontario, Canada

Now
19 °F

Passing clouds.


Feels Like: 11 °F
Forecast: 15 / 26 °F
Wind: 6 mph from Northeast

Location: Kingston

Current Time: Dec 20, 2014 at 10:59:06 AM

Latest Report: Dec 20, 2014 at 10:00 AM


Visibility: 15 mi

Pressure: 30.34 "Hg

Humidity: 73%

Dew point: 12 °F

Location of KingstonLocation

Historic Weather in Kingston — Graph

°F

Kingston temperature yesterday

Maximum temperature yesterday: 27 °F (at 3:00 PM)
Minimum temperature yesterday: 16 °F (at 11:00 PM)
Average temperature yesterday: 22 °F

Past Weeks' High & Low Weather Summary

 TemperatureHumidityPressure
High41 °F (Dec 17, 6:00 AM)100% (Dec 5, 11:00 PM)30.80 "Hg (Dec 5, 11:00 PM)
Low12 °F (Dec 20, 8:00 AM)35% (Dec 7, 1:00 PM)29.67 "Hg (Dec 11, 6:00 AM)
Average29 °F82%30.11 "Hg
* Reported Dec 5 10:00 AM — Dec 20 10:00 AM, Kingston, Weather by CustomWeather, © 2014

Note: Actual official high and low records may vary slightly from our data, if they occured in-between our weather recording intervals... More about our weather records

Advertising

Kingston weather history for previous 24 hours

 ConditionsComfort  
Time TempWeatherWind HumidityBarometerVisibility
10:00 AM
Dec 20
19 °FPassing clouds.6 mph73%30.34 "Hg15 mi
9:00 AM16 °FPassing clouds.6 mph79%30.35 "Hg15 mi
8:00 AM12 °FPassing clouds.3 mph85%30.36 "Hg15 mi
7:00 AM14 °FPassing clouds.3 mph85%30.33 "Hg15 mi
6:00 AM14 °FClear.6 mph85%30.31 "Hg15 mi
11:00 PM
Dec 19
16 °FClear.5 mph93%30.29 "Hg15 mi
10:00 PM18 °FClear.3 mph86%30.27 "Hg15 mi
9:00 PM19 °FClear.3 mph79%30.28 "Hg15 mi
8:00 PM19 °FClear.5 mph79%30.28 "Hg15 mi
7:00 PM21 °FClear.7 mph80%30.26 "Hg15 mi
6:00 PM23 °FPassing clouds.5 mph74%30.24 "Hg15 mi
5:00 PM25 °FPassing clouds.5 mph69%30.21 "Hg15 mi
4:00 PM25 °FPassing clouds.6 mph69%30.20 "Hg15 mi
3:00 PM27 °FPartly sunny.3 mph64%30.18 "Hg15 mi
2:00 PM25 °FScattered clouds.6 mph69%30.16 "Hg15 mi
1:00 PM25 °FPartly sunny.5 mph63%30.16 "Hg15 mi
12:00 PM25 °FPartly sunny.5 mph69%30.16 "Hg15 mi
11:00 AM23 °FPartly sunny.9 mph74%30.17 "Hg15 mi
10:00 AM23 °FScattered clouds.8 mph74%30.17 "Hg15 mi
Weather by CustomWeather, © 2014

See weather overviewHow to use our weather pages